Regional Weather Roundup
Issued by NWS Charleston, SC

Current Version | Previous Version | Text Only | Print | Product List | Glossary Off
Versions: 1 2 3 4 5 6 7 8 9 10 11 12 13 14 15 16 17 18 19 20 21 22 23 24 25 26 27 28 29 30 31 32 33 34 35 36 37 38 39 40 41 42 43 44 45 46 47 48 49 50

000
ASUS42 KCHS 230527
RWRCHS

Regional Weather Roundup
National Weather Service Charleston SC
100 AM EDT MON APR 23 2018

NOTE: "fair" indicates few or no clouds below 12,000 feet with no
significant weather and/or obstructions to visibility.

Not all stations are quality controlled. Use data with caution,
especially dewpoint observations.

SCZ027-030-031-034>040-042>050-230600-
...Southeast South Carolina...

CITY           SKY/WX    TMP DP  RH WIND       PRES   REMARKS
N Charleston   MOCLDY    67  54  63 E14G25    30.19F
Waterfront Prk   N/A     66  59  78 E17       30.04F
Mount Pleasant FAIR      66  55  68 E8G17     30.20S
Johns Island   MOCLDY    66  61  82 E13       30.19F
Pinopolis        N/A     63  55  77 E8        30.10F
Moncks Corner  FAIR      63  50  63 E5        30.20R
Summerville    MOCLDY    64  52  63 E6        30.21R
Beaufort MCAS  NOT AVBL
Beaufort Arpt  CLOUDY    66  57  72 E16G22    30.15S
Hilton Head Is FAIR      66  61  82 VRB6G16   30.16R
Walterboro     MOCLDY    63  54  72 E8        30.19S
Allendale      LGT RAIN  63  55  77 VRB5G12   30.14F

...Southern Midlands and Pee Dee...

CITY           SKY/WX    TMP DP  RH WIND       PRES   REMARKS
Georgetown     FAIR      63  55  77 E12G20    30.24S
Kingstree      LGT RAIN  59  52  77 E9        30.21F
Orangeburg     FAIR      61  52  72 VRB5      30.20F
Barnwell       DRIZZLE   63  54  72 E9G15     30.16F
Aiken          CLOUDY    59  54  82 E10       30.18F
Manning        FAIR      55  50  82 E3        30.21F
Columbia       CLOUDY    60  57  89 E9        30.20S
Sumter         MOCLDY    59  53  79 E7        30.19F
Florence       FAIR      61  51  70 E10       30.25F
Myrtle Beach   CLOUDY    62  56  80 E13G20    30.26F
N Myrtle Beach LGT RAIN  62  56  80 E9        30.27F

$$

GAZ063-065-086>088-099>101-113>116-118-119-134>141-150-230600-
...Southeast Georgia...

CITY           SKY/WX    TMP DP  RH WIND       PRES   REMARKS
Savannah Arpt  LGT RAIN  66  60  81 SE13      30.14S
Hunter AAF     FAIR      66  59  77 E17G23    30.10
Fort Stewart   LGT RAIN  64  61  88 E12G21    30.10F
Statesboro     LGT RAIN  65  56  73 E7        30.12S
Sylvania       LGT RAIN  64  59  82 SE5       30.14S
Claxton        CLOUDY    64  62  92 E6        30.12F

...CSRA, Central and far Southeast Georgia...

CITY           SKY/WX    TMP DP  RH WIND       PRES   REMARKS
Thomson        LGT RAIN  58  55  89 S10G20    30.16F
Augusta-Bush   FAIR      60  56  86 E8        30.13F
Augusta-Daniel FAIR      62  55  77 E10       30.14F
Swainsboro     CLOUDY    64  59  82 SE14G21   30.12R
Vidalia        CLOUDY    64  63  94 E10       30.09F
Eastman        RAIN      65  56  72 SE12G18   30.07F
Hazlehurst     CLOUDY    66  60  78 SE13G23   30.06F
Alma           CLOUDY    66  62  87 E13G22    30.07F
Waycross       LGT RAIN  67  64  90 SE12G18   30.07F
Jesup          LGT RAIN  66  63  88 E15       30.10
Baxley         CLOUDY    63  61  94 SE7       30.08F
Brunswick      CLOUDY    64  63  94 E18G28    30.10F
Saint Simons   CLOUDY    67  65  93 E23G32    30.09F

$$

SCZ027-028-034-036>038-045-046-048>050-GAZ119-141-230600-
...Lake and Supplemental Coastal Observations...

STATION/POSITION TIME  TEMP    WIND        PRES    WAVE   SWELL
                       AIR SEA DIR/SP/G            HT/PER HT/PER/DIR
                 (UTC) (F)     (DEG/KT/KT) (MB)    (FT/S) (FT/S/D)
Winyah Bay       0445   64     100/ 14     1024.0F
Lake Murray      0420   62     110/ 12/ 21 1022.0
ACE Basin NERRS  0445   67     350/  6       N/A
Fort Pulaski     0500   67 65  130/ 11/ 15 1021.3
Sapelo Island    0500   65     100/ 12     1019.0

$$

ANZ835-935-AMZ111-154-330-350-352-354-370-450-454-472-230600-
...C-MAN and Buoy Observations...

STATION/POSITION TIME  TEMP    WIND        PRES    WAVE   SWELL
                       AIR SEA DIR/SP/G            HT/PER HT/PER/DIR
                 (UTC) (F)     (DEG/KT/KT) (MB)    (FT/S) (FT/S/D)
Buoy 41004       0510   69 67  100/ 21/ 25 1022.1
Buoy 41008       0450   66 65  110/ 21/ 25 1019.2F   6/ 7   3/110/ 7
Folly Beach CMAN 0500   65     100/ 14/ 15 1023.0F
Capers Nearshore 0508   65 64  100/ 16/ 21 1022.7F
Fripp Nearshore  0508   66 64  100/ 16/ 21 1020.5F


STATION/POSITION TIME  TEMP    WIND        PRES    WAVE   SWELL
                       AIR SEA DIR/SP/G            HT/PER HT/PER/DIR
                 (UTC) (F)     (DEG/KT/KT) (MB)    (FT/S) (FT/S/D)
5E St. Marys GA  0500      66                N/A     7/ 7
Frying Pan Buoy  0510   67 70  110/ 16/ 21 1025.1
Buoy 41025       0510   66 73  120/ 12/ 16 1028.0
Cape Lookout NC  0500          100/ 12/ 13 1027.5F
Buoy 41002       0510   67 72  100/ 14/ 17 1024.7
Buoy 41010       0510   74 75  110/ 23/ 27 1019.8
St Augustine FL  0500   70 69  130/ 10/ 11 1018.6R


$$




USA.gov is the U.S. government's official web portal to all federal, state and local government web resources and services.